Goldsboro, NC

2:10 AM EDT on October 24, 2017 (GMT -0400)
Seymour Johnson Air Force Base

Weather History for KGSB - December, 2013

Change the Weather History Date:

Tuesday, December 24, 2013

  Actual Average Record
Temperature  
Mean Temperature 43 °F -  
Max Temperature 51 °F 50 °F 78 °F (2015)
Min Temperature 34 °F 32 °F 15 °F (2000)
Degree Days  
Heating Degree Days 22    
Moisture  
Dew Point 39 °F    
Average Humidity 81    
Maximum Humidity 100    
Minimum Humidity 47    
Precipitation  
Precipitation 0.13 in - - ()
Sea Level Pressure  
Sea Level Pressure 30.17 in    
Wind  
Wind Speed 9 mph (North)    
Max Wind Speed 14 mph    
Max Gust Speed 22 mph    
Visibility 10 miles    
Events Rain    
Averages and records for this station are not official NWS values.
T = Trace of Precipitation, MM = Missing Value Source: NWS Daily Summary

Daily Weather History Graph

Daily Weather History Graph

Search for Another Location

Airport or City:

Trip Planner

Search our weather history database for the weather conditions in past years. The results will help you decide how hot, cold, wet, or windy it might be!

Date:

Astronomy

Dec. 24, 2013 Rise Set
Actual Time 7:18 AM EST 5:04 PM EST
Civil Twilight 6:50 AM EST 5:33 PM EST
Nautical Twilight 6:18 AM EST 6:05 PM EST
Astronomical Twilight 5:47 AM EST 6:36 PM EST
Moon 11:56 PM EST 11:25 AM EST
Length of Visible Light 10h 43m
Length of Day
9h 46m
Waning Gibbous, 59% of the Moon is Illuminated
Dec 24
Waning Gibbous
Dec 25
Last Quarter
Jan 1
New
Jan 7
First Quarter
Jan 15
Full

Hourly Weather History & Observations

Time (EST) Temp. Windchill Dew Point Humidity Pressure Visibility Wind Dir Wind Speed Gust Speed Precip Events Conditions
12:28 AM 51.8 °F - 51.8 °F 100% 30.09 in 10.0 mi North 6.9 mph - N/A Rain Light Rain
12:52 AM 51.8 °F - 51.8 °F 100% 30.10 in 8.0 mi NNE 9.2 mph - N/A Rain Light Rain
12:58 AM 51.6 °F - 51.1 °F 98% 30.10 in 7.0 mi NE 8.1 mph - 0.04 in Rain Light Rain
1:19 AM 50.0 °F - 50.0 °F 100% 30.08 in 6.0 mi NE 11.5 mph 19.6 mph N/A Rain Light Rain
1:28 AM 50.0 °F - 48.2 °F 94% 30.10 in 7.0 mi NE 9.2 mph 18.4 mph N/A Rain Light Rain
1:31 AM 50.0 °F - 48.2 °F 94% 30.10 in 9.0 mi NNE 9.2 mph 18.4 mph N/A Rain Light Rain
1:40 AM 50.0 °F - 48.2 °F 94% 30.10 in 10.0 mi NNE 6.9 mph - N/A Rain Light Rain
1:55 AM 50.0 °F - 48.2 °F 94% 30.09 in 10.0 mi NNE 6.9 mph - N/A Rain Light Rain
1:58 AM 49.5 °F - 48.7 °F 97% 30.10 in 10.0 mi NNE 6.9 mph - 0.06 in Rain Light Rain
2:07 AM 50.0 °F - 48.2 °F 94% 30.09 in 10.0 mi NNE 8.1 mph - N/A Rain Light Rain
2:10 AM 50.0 °F - 48.2 °F 94% 30.09 in 10.0 mi North 6.9 mph - N/A Rain Light Rain
2:43 AM 46.4 °F 40.7 °F 44.6 °F 93% 30.11 in 10.0 mi NNE 12.7 mph 20.7 mph N/A Rain Light Rain
2:46 AM 46.4 °F 40.4 °F 44.6 °F 93% 30.11 in 10.0 mi NNE 13.8 mph 20.7 mph N/A Rain Light Rain
2:47 AM 46.4 °F 40.4 °F 44.6 °F 93% 30.11 in 10.0 mi North 13.8 mph 20.7 mph N/A   Overcast
2:58 AM 45.1 °F 39.1 °F 43.0 °F 92% 30.11 in 10.0 mi North 12.7 mph 21.9 mph 0.01 in   Overcast
2:59 AM 44.6 °F 39.2 °F 42.8 °F 93% 30.10 in 10.0 mi NNE 10.4 mph 18.4 mph N/A Rain Light Rain
3:11 AM 44.6 °F 38.4 °F 41.0 °F 87% 30.12 in 10.0 mi North 12.7 mph 19.6 mph N/A Rain Light Rain
3:12 AM 44.6 °F 38.4 °F 41.0 °F 87% 30.12 in 10.0 mi North 12.7 mph 19.6 mph N/A   Overcast
3:27 AM 44.6 °F 39.7 °F 41.0 °F 87% 30.12 in 10.0 mi NNE 9.2 mph - N/A   Overcast
3:46 AM 44.6 °F 39.7 °F 39.2 °F 81% 30.12 in 10.0 mi NNE 9.2 mph - N/A   Overcast
3:58 AM 43.9 °F 38.8 °F 40.6 °F 88% 30.12 in 10.0 mi NNE 9.2 mph - 0.00 in   Overcast
4:07 AM 42.8 °F 36.6 °F 41.0 °F 93% 30.11 in 10.0 mi NNE 11.5 mph - N/A   Overcast
4:19 AM 42.8 °F 39.3 °F 41.0 °F 93% 30.12 in 10.0 mi North 5.8 mph - N/A   Overcast
4:58 AM 43.9 °F 39.9 °F 42.1 °F 93% 30.10 in 10.0 mi NNE 6.9 mph - 0.00 in   Overcast
5:10 AM 44.6 °F 40.7 °F 42.8 °F 93% 30.11 in 10.0 mi NNE 6.9 mph - N/A   Overcast
5:16 AM 44.6 °F 40.2 °F 42.8 °F 93% 30.10 in 10.0 mi NNE 8.1 mph - N/A   Overcast
5:18 AM 44.6 °F 40.2 °F 42.8 °F 93% 30.10 in 10.0 mi North 8.1 mph - N/A   Overcast
5:24 AM 44.6 °F 40.2 °F 42.8 °F 93% 30.10 in 10.0 mi NNE 8.1 mph - N/A   Overcast
5:58 AM 43.7 °F 42.1 °F 42.4 °F 95% 30.14 in 10.0 mi North 3.5 mph - 0.02 in   Overcast
6:04 AM 42.8 °F 40.1 °F 42.8 °F 100% 30.14 in 10.0 mi North 4.6 mph - N/A   Overcast
6:05 AM 42.8 °F 39.3 °F 42.8 °F 100% 30.14 in 10.0 mi NNW 5.8 mph - N/A   Overcast
6:08 AM 42.8 °F 37.5 °F 42.8 °F 100% 30.14 in 10.0 mi North 9.2 mph - N/A   Overcast
6:26 AM 42.8 °F 39.3 °F 41.0 °F 93% 30.15 in 10.0 mi Variable 5.8 mph - N/A   Overcast
6:38 AM 42.8 °F 38.6 °F 39.2 °F 87% 30.16 in 10.0 mi North 6.9 mph 18.4 mph N/A   Overcast
6:41 AM 42.8 °F 38.6 °F 39.2 °F 87% 30.16 in 10.0 mi North 6.9 mph - N/A   Overcast
6:53 AM 42.8 °F 37.5 °F 39.2 °F 87% 30.16 in 10.0 mi North 9.2 mph 16.1 mph N/A   Overcast
6:56 AM 42.8 °F 36.6 °F 37.4 °F 81% 30.17 in 10.0 mi North 11.5 mph 16.1 mph N/A   Overcast
6:58 AM 42.6 °F 36.8 °F 38.1 °F 84% 30.18 in 10.0 mi North 10.4 mph 16.1 mph 0.00 in   Overcast
7:58 AM 41.9 °F 36.3 °F 34.5 °F 75% 30.20 in 10.0 mi North 9.2 mph - N/A   Mostly Cloudy
8:58 AM 42.4 °F 37.5 °F 33.4 °F 70% 30.22 in 10.0 mi North 8.1 mph 16.1 mph N/A   Clear
9:58 AM 42.6 °F 36.3 °F 32.7 °F 68% 30.24 in 10.0 mi NNW 11.5 mph - N/A   Clear
10:58 AM 44.6 °F 38.8 °F 33.1 °F 64% 30.24 in 10.0 mi North 11.5 mph 17.3 mph N/A   Partly Cloudy
11:58 AM 45.5 °F 39.9 °F 30.7 °F 56% 30.22 in 10.0 mi NNW 11.5 mph - N/A   Clear
12:58 PM 46.9 °F - 29.7 °F 51% 30.22 in 10.0 mi North 10.4 mph - N/A   Clear
1:58 PM 47.8 °F - 30.4 °F 51% 30.23 in 10.0 mi NW 10.4 mph - N/A   Clear
2:58 PM 47.7 °F - 30.9 °F 52% 30.23 in 10.0 mi NW 9.2 mph 18.4 mph N/A   Partly Cloudy
3:58 PM 46.9 °F - 30.2 °F 52% 30.26 in 10.0 mi NNW 11.5 mph - N/A   Scattered Clouds
4:58 PM 45.0 °F 41.8 °F 29.1 °F 54% 30.27 in 10.0 mi NNW 5.8 mph - N/A   Clear
5:58 PM 43.2 °F 39.0 °F 28.4 °F 56% 30.31 in 10.0 mi NNW 6.9 mph - N/A   Clear
6:58 PM 41.9 °F 38.2 °F 26.6 °F 55% 30.34 in 10.0 mi NNW 5.8 mph - N/A   Clear
7:58 PM 40.3 °F - 27.1 °F 59% 30.36 in 10.0 mi North 2.3 mph - N/A   Clear
8:58 PM 39.4 °F 31.8 °F 23.2 °F 52% 30.39 in 10.0 mi North 12.7 mph 17.3 mph N/A   Clear
9:58 PM 37.8 °F 30.2 °F 19.8 °F 48% 30.41 in 10.0 mi North 11.5 mph - N/A   Clear
10:58 PM 35.6 °F 28.0 °F 17.1 °F 47% 30.43 in 10.0 mi NNW 10.4 mph - N/A   Clear
11:58 PM 34.0 °F 27.2 °F 16.7 °F 49% 30.45 in 10.0 mi North 8.1 mph - N/A   Clear